White Plains, CT

9:51 PM EST on November 21, 2017 (GMT -0500)
Westchester County

Weather History for KHPN - March, 2014

Change the Weather History Date:

Monday, March 10, 2014

  Actual Average Record
Temperature  
Mean Temperature 40 °F -  
Max Temperature 48 °F 41 °F 75 °F (2016)
Min Temperature 34 °F 26 °F 8 °F (1984)
Degree Days  
Heating Degree Days 25    
Moisture  
Dew Point 23 °F    
Average Humidity 55    
Maximum Humidity 70    
Minimum Humidity 35    
Precipitation  
Precipitation 0.00 in - - ()
Sea Level Pressure  
Sea Level Pressure 29.78 in    
Wind  
Wind Speed 4 mph (SW)    
Max Wind Speed 9 mph    
Max Gust Speed 21 mph    
Visibility 8 miles    
Events Snow    
Averages and records for this station are not official NWS values.
T = Trace of Precipitation, MM = Missing Value Source: NWS Daily Summary

Daily Weather History Graph

Daily Weather History Graph

Search for Another Location

Airport or City:

Trip Planner

Search our weather history database for the weather conditions in past years. The results will help you decide how hot, cold, wet, or windy it might be!

Date:

Astronomy

Mar. 10, 2014 Rise Set
Actual Time 7:14 AM EDT 6:55 PM EDT
Civil Twilight 6:47 AM EDT 7:23 PM EDT
Nautical Twilight 6:15 AM EDT 7:55 PM EDT
Astronomical Twilight 5:43 AM EDT 8:27 PM EDT
Moon 1:35 PM EDT (3/10) 3:26 AM EDT (3/10)
Length of Visible Light 12h 36m
Length of Day
11h 41m
Waxing Gibbous, 70% of the Moon is Illuminated
Mar 10
Waxing Gibbous
Mar 16
Full
Mar 23
Last Quarter
Mar 30
New
Apr 7
First Quarter

Hourly Weather History & Observations

Time (EDT) Temp. Windchill Dew Point Humidity Pressure Visibility Wind Dir Wind Speed Gust Speed Precip Events Conditions
12:56 AM 34.0 °F - 9.0 °F 35% 29.91 in 10.0 mi Calm Calm - N/A   Clear
1:56 AM 35.1 °F - 10.9 °F 37% 29.89 in 10.0 mi Calm Calm - N/A   Mostly Cloudy
2:56 AM 36.0 °F 29.6 °F 14.0 °F 41% 29.86 in 10.0 mi WSW 8.1 mph - N/A   Overcast
3:56 AM 36.0 °F 32.1 °F 15.1 °F 43% 29.84 in 10.0 mi WSW 4.6 mph - N/A   Overcast
4:56 AM 36.0 °F 31.1 °F 16.0 °F 44% 29.84 in 10.0 mi West 5.8 mph - N/A   Overcast
5:56 AM 34.0 °F 26.6 °F 23.0 °F 64% 29.84 in 4.0 mi West 9.2 mph 20.7 mph 0.00 in Snow Light Snow
6:56 AM 34.0 °F - 25.0 °F 70% 29.83 in 10.0 mi Calm Calm - 0.00 in   Overcast
7:56 AM 35.1 °F - 25.0 °F 67% 29.84 in 9.0 mi Calm Calm - N/A   Overcast
8:30 AM 35.6 °F 28.6 °F 23.0 °F 60% 29.83 in 2.5 mi WSW 9.2 mph - 0.00 in Snow Light Snow
8:56 AM 35.1 °F 28.6 °F 26.1 °F 70% 29.85 in 2.5 mi West 8.1 mph - 0.00 in Snow Light Snow
9:10 AM 35.6 °F 29.9 °F 26.6 °F 70% 29.83 in 4.0 mi WSW 6.9 mph - 0.00 in Snow Light Snow
9:56 AM 36.0 °F 31.1 °F 27.0 °F 70% 29.84 in 8.0 mi Variable 5.8 mph - 0.00 in   Overcast
10:56 AM 39.0 °F 34.0 °F 26.1 °F 60% 29.82 in 9.0 mi Variable 6.9 mph - N/A   Mostly Cloudy
11:56 AM 39.9 °F 36.7 °F 25.0 °F 55% 29.81 in 9.0 mi West 4.6 mph - N/A   Overcast
12:56 PM 41.0 °F 36.4 °F 23.0 °F 49% 29.79 in 9.0 mi SW 6.9 mph - N/A   Overcast
1:56 PM 44.1 °F 39.0 °F 24.1 °F 45% 29.75 in 10.0 mi SSW 9.2 mph - N/A   Mostly Cloudy
2:56 PM 45.0 °F 43.5 °F 24.1 °F 44% 29.73 in 10.0 mi Variable 3.5 mph - N/A   Mostly Cloudy
3:56 PM 46.0 °F 43.9 °F 24.1 °F 42% 29.71 in 9.0 mi Variable 4.6 mph - N/A   Mostly Cloudy
4:56 PM 46.9 °F - 25.0 °F 42% 29.69 in 9.0 mi Variable 4.6 mph - N/A   Clear
5:56 PM 46.9 °F - 25.0 °F 42% 29.68 in 9.0 mi Calm Calm - N/A   Clear
6:56 PM 44.1 °F - 26.1 °F 49% 29.69 in 9.0 mi Calm Calm - N/A   Scattered Clouds
7:56 PM 41.0 °F 39.0 °F 27.0 °F 57% 29.70 in 9.0 mi SSE 3.5 mph - N/A   Scattered Clouds
8:56 PM 39.0 °F 35.7 °F 28.0 °F 65% 29.69 in 9.0 mi SSE 4.6 mph - N/A   Mostly Cloudy
9:56 PM 39.0 °F 34.8 °F 28.9 °F 67% 29.68 in 9.0 mi SE 5.8 mph - N/A   Mostly Cloudy
10:56 PM 37.9 °F - 28.9 °F 70% 29.66 in 8.0 mi Calm Calm - N/A   Overcast
11:56 PM 37.9 °F - 28.9 °F 70% 29.62 in 7.0 mi Calm Calm - N/A   Mostly Cloudy